FW4559 Weather Reports


Display with metric or nautical units.
time (UTC)temp
F
wind
direction
speed
MPH
gust
MPH
rain 1hr
in
rain 24hr
in
rain mn
in
humidity
%
barometer
mb
20260904232101 76 153 0.0 1.0 0.00 0.00 0.00 73 1014.3
20260904231600 77 153 0.0 0.0 0.00 0.00 0.00 72 1014.2
20260904231059 77 153 0.0 0.0 0.00 0.00 0.00 72 1014.2
20260904230559 77 153 0.0 0.0 0.00 0.00 0.00 70 1014.2
20260904230128 77 153 0.0 0.0 0.00 0.00 0.00 69 1014.2
20260904225600 78 153 0.0 0.0 0.00 0.00 0.00 70 1014.2
20260904225059 78 153 0.0 1.0 0.00 0.00 0.00 68 1014.1
20260904224603 78 154 0.0 1.0 0.00 0.00 0.00 68 1014.0
20260904224058 78 154 0.0 0.0 0.00 0.00 0.00 66 1014.0
20260904223558 78 154 0.0 1.0 0.00 0.00 0.00 68 1013.9
20260904223105 78 153 0.0 1.0 0.00 0.00 0.00 68 1014.0
20260904222558 78 334 0.0 2.0 0.00 0.00 0.00 67 1014.2
20260904222058 79 334 0.0 2.0 0.00 0.00 0.00 64 1014.3
20260904221558 80 52 0.0 2.0 0.00 0.00 0.00 66 1014.2
20260904221057 80 158 0.0 2.0 0.00 0.00 0.00 65 1014.2
20260904220557 80 328 0.0 2.0 0.00 0.00 0.00 64 1014.2
20260904220057 80 240 0.0 5.0 0.00 0.00 0.00 65 1014.2
20260904215557 80 242 0.0 6.0 0.00 0.00 0.00 64 1014.3
20260904215056 81 301 1.0 6.0 0.00 0.00 0.00 61 1014.1
20260904214559 82 44 1.0 4.0 0.00 0.00 0.00 62 1014.2
20260904214056 83 146 0.0 5.0 0.00 0.00 0.00 65 1014.1
20260904213556 84 340 2.0 5.0 0.00 0.00 0.00 65 1014.1
20260904213056 84 108 0.0 2.0 0.00 0.00 0.00 65 1013.7
20260904212556 83 128 0.0 1.0 0.00 0.00 0.00 67 1013.6
20260904212055 82 109 0.0 1.0 0.00 0.00 0.00 68 1013.5
20260904211555 82 194 0.0 4.0 0.00 0.00 0.00 68 1013.6
20260904211054 81 216 0.0 4.0 0.00 0.00 0.00 69 1013.7
20260904210554 81 155 1.0 4.0 0.00 0.00 0.00 68 1013.8
20260904210054 82 180 1.0 3.0 0.00 0.00 0.00 68 1013.9
20260904205554 81 166 0.0 2.0 0.00 0.00 0.00 68 1013.8
20260904205053 81 157 0.0 2.0 0.00 0.00 0.00 69 1013.7
20260904204553 80 210 0.0 3.0 0.00 0.00 0.00 71 1013.9
20260904204053 80 92 0.0 3.0 0.00 0.00 0.00 70 1013.7
20260904203553 80 112 0.0 5.0 0.00 0.00 0.00 68 1013.7
20260904203056 80 106 1.0 7.0 0.00 0.00 0.00 67 1013.6
20260904202554 81 115 1.0 4.0 0.00 0.00 0.00 65 1013.9
20260904202056 82 105 1.0 5.0 0.00 0.00 0.00 63 1013.8
20260904201552 83 70 2.0 9.0 0.00 0.00 0.00 61 1013.9
20260904201056 85 25 3.0 9.0 0.00 0.00 0.00 59 1014.0
20260904200551 87 2 1.0 4.0 0.00 0.00 0.00 56 1014.0
20260904200051 88 169 1.0 6.0 0.00 0.00 0.00 57 1013.8
20260904195551 89 151 2.0 6.0 0.00 0.00 0.00 54 1013.5
20260904195051 88 139 1.0 5.0 0.00 0.00 0.00 57 1013.5
20260904194550 88 245 1.0 6.0 0.00 0.00 0.00 57 1013.7
20260904194050 89 147 3.0 6.0 0.00 0.00 0.00 55 1013.7
20260904193551 91 226 2.0 8.0 0.00 0.00 0.00 54 1013.6
20260904193050 91 248 2.0 8.0 0.00 0.00 0.00 52 1013.6
20260904192549 93 52 0.0 3.0 0.00 0.00 0.00 53 1013.6
20260904192048 92 333 0.0 3.0 0.00 0.00 0.00 52 1013.7
20260904191545 92 102 0.0 3.0 0.00 0.00 0.00 56 1014.0
20260904191046 90 221 0.0 4.0 0.00 0.00 0.00 54 1014.2
20260904190544 90 219 1.0 8.0 0.00 0.00 0.00 52 1014.3
20260904190043 90 161 3.0 8.0 0.00 0.00 0.00 55 1014.5
20260904185543 92 211 1.0 6.0 0.00 0.00 0.00 50 1014.5
20260904185041 92 149 1.0 8.0 0.00 0.00 0.00 49 1014.5
20260904184541 91 148 2.0 8.0 0.00 0.00 0.00 48 1014.5
20260904184040 91 131 2.0 6.0 0.00 0.00 0.00 48 1014.5
20260904183538 91 229 2.0 5.0 0.00 0.00 0.00 50 1014.7
20260904183037 91 126 0.0 4.0 0.00 0.00 0.00 49 1014.9
20260904182536 91 216 0.0 4.0 0.00 0.00 0.00 51 1015.0
20260904182036 89 215 1.0 5.0 0.00 0.00 0.00 54 1015.0
20260904181535 88 133 2.0 5.0 0.00 0.00 0.00 53 1015.1
20260904181034 88 224 2.0 5.0 0.00 0.00 0.00 53 1015.2
20260904180536 89 181 1.0 5.0 0.00 0.00 0.00 55 1015.3
20260904180033 89 213 0.0 3.0 0.00 0.00 0.00 55 1015.2
20260904175533 89 212 0.0 1.0 0.00 0.00 0.00 56 1015.3
20260904175033 87 212 0.0 1.0 0.00 0.00 0.00 57 1015.5
20260904174533 87 212 0.0 1.0 0.00 0.00 0.00 58 1015.5
20260904174032 87 212 0.0 1.0 0.00 0.00 0.00 55 1015.6
20260904173532 86 212 0.0 1.0 0.00 0.00 0.00 56 1015.7
20260904173032 86 352 0.0 3.0 0.00 0.00 0.00 56 1015.6
20260904172532 87 352 0.0 6.0 0.00 0.00 0.00 54 1015.6
20260904172032 90 352 3.0 6.0 0.00 0.00 0.00 48 1015.7
20260904171531 91 165 1.0 3.0 0.00 0.00 0.00 52 1015.7
20260904171029 91 89 1.0 3.0 0.00 0.00 0.00 49 1015.8
20260904170528 91 196 0.0 1.0 0.00 0.00 0.00 50 1015.8
20260904170027 90 311 0.0 1.0 0.00 0.00 0.00 53 1015.7
20260904165525 89 243 0.0 2.0 0.00 0.00 0.00 56 1015.9
20260904165023 89 341 0.0 2.0 0.00 0.00 0.00 56 1015.9
20260904164523 87 50 0.0 4.0 0.00 0.00 0.00 59 1016.0
20260904164022 87 353 0.0 4.0 0.00 0.00 0.00 58 1016.2
20260904163521 86 97 1.0 4.0 0.00 0.00 0.00 58 1016.2
20260904163022 85 79 0.0 6.0 0.00 0.00 0.00 62 1016.3
20260904162521 84 32 0.0 8.0 0.00 0.00 0.00 60 1016.3
20260904162020 84 11 1.0 6.0 0.00 0.00 0.00 60 1016.3
20260904161519 84 305 3.0 7.0 0.00 0.00 0.00 59 1016.3
20260904161019 84 349 1.0 8.0 0.00 0.00 0.00 62 1016.3
20260904160519 83 357 1.0 7.0 0.00 0.00 0.00 63 1016.4
20260904160018 83 352 1.0 8.0 0.00 0.00 0.00 62 1016.4
20260904155517 83 331 1.0 9.0 0.00 0.00 0.00 64 1016.5
20260904155017 83 356 5.0 9.0 0.00 0.00 0.00 61 1016.5
20260904154518 83 22 1.0 10.0 0.00 0.00 0.00 64 1016.5
20260904154020 83 347 2.0 10.0 0.00 0.00 0.00 63 1016.5
20260904153517 82 70 1.0 9.0 0.00 0.00 0.00 64 1016.4
20260904153017 82 327 3.0 9.0 0.00 0.00 0.00 63 1016.4
20260904152516 83 11 3.0 8.0 0.00 0.00 0.00 62 1016.4
20260904152016 83 323 3.0 8.0 0.00 0.00 0.00 62 1016.4
20260904151517 84 99 3.0 8.0 0.00 0.00 0.00 61 1016.5
20260904151015 84 28 0.0 4.0 0.00 0.00 0.00 63 1016.4
20260904150515 84 57 1.0 4.0 0.00 0.00 0.00 63 1016.4
20260904150024 84 3 0.0 4.0 0.00 0.00 0.00 64 1016.5
20260904145515 85 353 0.0 4.0 0.00 0.00 0.00 62 1016.4
20260904145014 86 21 1.0 3.0 0.00 0.00 0.00 62 1016.4
20260904144513 87 308 0.0 1.0 0.00 0.00 0.00 62 1016.5
20260904144013 87 324 0.0 0.0 0.00 0.00 0.00 62 1016.4
20260904143513 86 324 0.0 2.0 0.00 0.00 0.00 63 1016.5
20260904143012 87 325 0.0 1.0 0.00 0.00 0.00 64 1016.5
20260904142511 85 219 0.0 0.0 0.00 0.00 0.00 67 1016.6
20260904142010 84 219 0.0 0.0 0.00 0.00 0.00 68 1016.5
20260904141507 84 219 0.0 0.0 0.00 0.00 0.00 69 1016.6
20260904141006 83 219 0.0 0.0 0.00 0.00 0.00 69 1016.6
20260904140505 83 219 0.0 0.0 0.00 0.00 0.00 72 1016.5
20260904140005 82 219 0.0 0.0 0.00 0.00 0.00 73 1016.6
20260904135503 81 219 0.0 0.0 0.00 0.00 0.00 75 1016.5
20260904135002 80 219 0.0 0.0 0.00 0.00 0.00 77 1016.5
20260904134600 80 219 0.0 0.0 0.00 0.00 0.00 78 1016.5
20260904134101 79 219 0.0 0.0 0.00 0.00 0.00 80 1016.5
20260904133557 78 219 0.0 0.0 0.00 0.00 0.00 80 1016.5
20260904133101 78 219 0.0 0.0 0.00 0.00 0.00 83 1016.4
20260904132554 76 219 0.0 0.0 0.00 0.00 0.00 84 1016.5
20260904132055 76 219 0.0 0.0 0.00 0.00 0.00 86 1016.5
20260904131551 75 219 0.0 0.0 0.00 0.00 0.00 89 1016.5
20260904131049 74 219 0.0 0.0 0.00 0.00 0.00 91 1016.6
20260904130548 72 219 0.0 0.0 0.00 0.00 0.00 93 1016.8
20260904130100 71 219 0.0 0.0 0.00 0.00 0.00 94 1016.8
20260904125549 71 219 0.0 0.0 0.00 0.00 0.00 96 1016.8
20260904125048 70 219 0.0 0.0 0.00 0.00 0.00 96 1016.8
20260904124547 70 219 0.0 0.0 0.00 0.00 0.00 96 1016.9
20260904124044 69 219 0.0 0.0 0.00 0.00 0.00 96 1016.9
20260904123542 67 219 0.0 0.0 0.00 0.00 0.00 96 1016.9
20260904123040 66 219 0.0 0.0 0.00 0.00 0.00 96 1016.8
20260904122540 64 219 0.0 0.0 0.00 0.00 0.00 96 1016.7
20260904122039 64 219 0.0 0.0 0.00 0.00 0.00 96 1016.6
20260904121539 63 219 0.0 0.0 0.00 0.00 0.00 96 1016.7
20260904121041 63 219 0.0 0.0 0.00 0.00 0.00 96 1016.6
20260904120537 62 219 0.0 0.0 0.00 0.00 0.00 96 1016.6
20260904120047 62 219 0.0 0.0 0.00 0.00 0.00 96 1016.6
20260904115537 62 219 0.0 0.0 0.00 0.00 0.00 96 1016.6
20260904115037 62 219 0.0 0.0 0.00 0.00 0.00 96 1016.5
20260904114538 62 219 0.0 0.0 0.00 0.00 0.00 96 1016.6
20260904114036 62 219 0.0 0.0 0.00 0.00 0.00 96 1016.5
20260904113541 62 219 0.0 0.0 0.00 0.00 0.00 96 1016.5
20260904113038 62 219 0.0 0.0 0.00 0.00 0.00 96 1016.4
20260904112535 62 219 0.0 0.0 0.00 0.00 0.00 96 1016.4
20260904112035 62 219 0.0 0.0 0.00 0.00 0.00 96 1016.4
20260904111535 62 219 0.0 0.0 0.00 0.00 0.00 96 1016.4
20260904111035 62 219 0.0 0.0 0.00 0.00 0.00 96 1016.4
20260904110535 62 219 0.0 0.0 0.00 0.00 0.00 96 1016.3
20260904110034 62 219 0.0 0.0 0.00 0.00 0.00 96 1016.2
20260904105533 62 219 0.0 0.0 0.00 0.00 0.00 96 1016.3
20260904105033 62 219 0.0 0.0 0.00 0.00 0.00 96 1016.2
20260904104532 62 219 0.0 0.0 0.00 0.00 0.00 96 1016.2
20260904104031 62 219 0.0 0.0 0.00 0.00 0.00 96 1016.0
20260904103531 62 219 0.0 0.0 0.00 0.00 0.00 96 1016.1
20260904103032 62 219 0.0 0.0 0.00 0.00 0.00 96 1016.0
20260904102531 62 219 0.0 0.0 0.00 0.00 0.00 96 1015.9
20260904102033 62 219 0.0 0.0 0.00 0.00 0.00 96 1016.1
20260904101531 62 219 0.0 0.0 0.00 0.00 0.00 96 1015.9
20260904101029 62 219 0.0 0.0 0.00 0.00 0.00 96 1016.0
20260904100532 62 219 0.0 0.0 0.00 0.00 0.00 96 1015.9
20260904100033 62 219 0.0 0.0 0.00 0.00 0.00 96 1015.9
20260904095531 62 219 0.0 0.0 0.00 0.00 0.00 96 1015.9
20260904095028 63 219 0.0 0.0 0.00 0.00 0.00 96 1015.8
20260904094528 63 219 0.0 0.0 0.00 0.00 0.00 96 1016.0
20260904094027 63 219 0.0 0.0 0.00 0.00 0.00 96 1016.0
20260904093527 63 219 0.0 0.0 0.00 0.00 0.00 96 1015.8
20260904093027 63 219 0.0 0.0 0.00 0.00 0.00 96 1015.8
20260904092526 63 219 0.0 0.0 0.00 0.00 0.00 96 1015.8
20260904092029 63 219 0.0 0.0 0.00 0.00 0.00 96 1015.7
20260904091526 63 219 0.0 0.0 0.00 0.00 0.00 96 1015.8
20260904091025 63 219 0.0 0.0 0.00 0.00 0.00 96 1015.7
20260904090525 63 219 0.0 0.0 0.00 0.00 0.00 96 1015.5
20260904090031 63 219 0.0 0.0 0.00 0.00 0.00 96 1015.5
20260904085525 63 219 0.0 0.0 0.00 0.00 0.00 96 1015.4
20260904085125 63 219 0.0 0.0 0.00 0.00 0.00 96 1015.5
20260904084525 63 219 0.0 0.0 0.00 0.00 0.00 96 1015.3
20260904084026 63 219 0.0 0.0 0.00 0.00 0.00 96 1015.4
20260904083524 63 219 0.0 0.0 0.00 0.00 0.00 96 1015.3
20260904083032 63 219 0.0 0.0 0.00 0.00 0.00 96 1015.3
20260904082523 63 219 0.0 0.0 0.00 0.00 0.00 96 1015.2
20260904082023 64 219 0.0 0.0 0.00 0.00 0.00 96 1015.4
20260904081522 63 219 0.0 0.0 0.00 0.00 0.00 96 1015.3
20260904081021 64 219 0.0 0.0 0.00 0.00 0.00 96 1015.3
20260904080520 64 219 0.0 0.0 0.00 0.00 0.00 96 1015.3
20260904080020 64 219 0.0 0.0 0.00 0.00 0.00 96 1015.4
20260904075520 64 219 0.0 0.0 0.00 0.00 0.00 96 1015.4
20260904075019 64 219 0.0 0.0 0.00 0.00 0.00 96 1015.4
20260904074520 64 219 0.0 0.0 0.00 0.00 0.00 96 1015.5
20260904074020 64 219 0.0 1.0 0.00 0.00 0.00 96 1015.5
20260904073523 64 219 0.0 1.0 0.00 0.00 0.00 96 1015.5
20260904073019 64 219 0.0 0.0 0.00 0.00 0.00 96 1015.5
20260904072519 64 219 0.0 0.0 0.00 0.00 0.00 96 1015.6
20260904072019 64 219 0.0 0.0 0.00 0.00 0.00 96 1015.6
20260904071522 64 219 0.0 0.0 0.00 0.00 0.00 96 1015.5
20260904071021 64 219 0.0 0.0 0.00 0.00 0.00 96 1015.6
20260904070519 64 219 0.0 0.0 0.00 0.00 0.00 96 1015.7
20260904070019 64 219 0.0 0.0 0.00 0.00 0.00 96 1015.8
20260904065516 64 219 0.0 0.0 0.00 0.00 0.00 96 1015.8
20260904065014 64 219 0.0 0.0 0.00 0.00 0.00 96 1015.9
20260904064514 65 219 0.0 0.0 0.00 0.00 0.00 96 1016.1
20260904064013 65 219 0.0 0.0 0.00 0.00 0.00 96 1016.1
20260904063513 65 219 0.0 0.0 0.00 0.00 0.00 96 1016.1
20260904063012 65 219 0.0 0.0 0.00 0.00 0.00 96 1016.2
20260904062511 65 219 0.0 0.0 0.00 0.00 0.00 96 1016.2
20260904062015 65 219 0.0 0.0 0.00 0.00 0.00 96 1016.3
20260904061527 65 219 0.0 0.0 0.00 0.00 0.00 96 1016.4
20260904061011 65 219 0.0 0.0 0.00 0.00 0.00 96 1016.4
20260904060510 65 219 0.0 0.0 0.00 0.00 0.00 96 1016.4
20260904060010 65 219 0.0 0.0 0.00 0.00 0.00 96 1016.4
20260904055509 65 219 0.0 0.0 0.00 0.00 0.00 96 1016.5
20260904055009 65 219 0.0 0.0 0.00 0.00 0.00 96 1016.5
20260904054518 65 219 0.0 0.0 0.00 0.00 0.00 96 1016.5
20260904054008 65 219 0.0 0.0 0.00 0.00 0.00 96 1016.5
20260904053507 65 219 0.0 0.0 0.00 0.00 0.00 96 1016.5
20260904053007 65 219 0.0 0.0 0.00 0.00 0.00 96 1016.6
20260904052507 65 219 0.0 0.0 0.00 0.00 0.00 95 1016.6
20260904052007 65 219 0.0 0.0 0.00 0.00 0.00 96 1016.7
20260904051505 66 219 0.0 1.0 0.00 0.00 0.00 96 1016.9
20260904051006 66 219 0.0 2.0 0.00 0.00 0.00 96 1016.8
20260904050503 66 229 1.0 2.0 0.00 0.00 0.00 95 1016.8
20260904050002 66 205 0.0 0.0 0.00 0.00 0.00 95 1016.9
20260904045503 66 205 0.0 0.0 0.00 0.00 0.00 95 1016.9
20260904045004 66 205 0.0 0.0 0.00 0.00 0.00 95 1017.0
20260904044505 66 205 0.0 0.0 0.00 0.00 0.00 95 1017.0
20260904044002 66 205 0.0 0.0 0.00 0.00 0.00 95 1017.0
20260904043501 66 205 0.0 0.0 0.00 0.00 0.00 95 1017.0
20260904043108 66 205 0.0 0.0 0.00 0.00 0.00 95 1017.0
20260904042559 66 205 0.0 0.0 0.00 0.00 0.00 95 1017.0
20260904042059 67 205 0.0 0.0 0.00 0.00 0.00 95 1016.9
20260904041556 67 205 0.0 0.0 0.00 0.00 0.00 95 1017.0
20260904041057 67 205 0.0 0.0 0.00 0.00 0.00 95 1016.9
20260904040557 67 205 0.0 0.0 0.00 0.00 0.00 95 1016.8
20260904040055 67 205 0.0 0.0 0.00 0.00 0.00 95 1016.8
20260904035555 67 205 0.0 0.0 0.00 0.00 0.00 95 1016.9
20260904035053 67 205 0.0 0.0 0.00 0.00 0.00 95 1016.9
20260904034554 67 205 0.0 0.0 0.00 0.00 0.00 95 1017.0
20260904034054 67 205 0.0 1.0 0.00 0.00 0.00 95 1017.0
20260904033554 67 205 0.0 1.0 0.00 0.00 0.00 95 1017.0
20260904033055 67 200 0.0 0.0 0.00 0.00 0.00 95 1017.2
20260904032554 67 200 0.0 0.0 0.00 0.00 0.00 95 1017.1
20260904032054 67 200 0.0 0.0 0.00 0.00 0.00 94 1017.0
20260904031554 67 200 0.0 0.0 0.00 0.00 0.00 94 1017.1
20260904031053 67 200 0.0 0.0 0.00 0.00 0.00 94 1017.0
20260904030553 68 200 0.0 0.0 0.00 0.00 0.00 94 1017.0
20260904030105 68 200 0.0 0.0 0.00 0.00 0.00 94 1017.1
20260904025553 68 200 0.0 0.0 0.00 0.00 0.00 94 1017.2
20260904025052 68 200 0.0 0.0 0.00 0.00 0.00 94 1017.1
20260904024553 68 200 0.0 0.0 0.00 0.00 0.00 94 1017.2
20260904024054 68 200 0.0 0.0 0.00 0.00 0.00 93 1017.2
20260904023552 68 200 0.0 1.0 0.00 0.00 0.00 93 1017.1
20260904023054 69 200 0.0 1.0 0.00 0.00 0.00 93 1017.0
20260904022551 69 229 0.0 1.0 0.00 0.00 0.00 93 1017.1
20260904022051 69 229 0.0 0.0 0.00 0.00 0.00 92 1017.0
20260904021550 69 229 0.0 1.0 0.00 0.00 0.00 92 1017.0
20260904021050 69 233 0.0 1.0 0.00 0.00 0.00 92 1016.9
20260904020548 69 218 0.0 0.0 0.00 0.00 0.00 92 1017.1
20260904020050 69 110 0.0 0.0 0.00 0.00 0.00 92 1017.1
20260904015550 70 110 0.0 0.0 0.00 0.00 0.00 92 1017.1
20260904015051 70 110 0.0 0.0 0.00 0.00 0.00 91 1017.0
20260904014553 70 110 0.0 0.0 0.00 0.00 0.00 91 1016.9
20260904014048 70 110 0.0 0.0 0.00 0.00 0.00 91 1016.9
20260904013548 71 110 0.0 0.0 0.00 0.00 0.00 91 1016.9
20260904013049 71 110 0.0 0.0 0.00 0.00 0.00 91 1016.9
20260904012551 71 110 0.0 0.0 0.00 0.00 0.00 90 1016.8
20260904012048 71 110 0.0 0.0 0.00 0.00 0.00 90 1016.7
20260904011547 71 110 0.0 1.0 0.00 0.00 0.00 90 1016.6
20260904011050 72 110 0.0 1.0 0.00 0.00 0.00 90 1016.6
20260904010548 72 110 0.0 0.0 0.00 0.00 0.00 89 1016.6
20260904010049 72 110 0.0 0.0 0.00 0.00 0.00 89 1016.6
20260904005550 72 110 0.0 1.0 0.00 0.00 0.00 88 1016.6
20260904005047 73 110 0.0 1.0 0.00 0.00 0.00 88 1016.4
20260904004547 73 110 0.0 0.0 0.00 0.00 0.00 87 1016.3
20260904004051 73 110 0.0 1.0 0.00 0.00 0.00 87 1016.3
20260904003549 73 110 0.0 1.0 0.00 0.00 0.00 87 1016.1
20260904003047 74 110 0.0 2.0 0.00 0.00 0.00 86 1016.2
20260904002546 74 96 0.0 2.0 0.00 0.00 0.00 86 1016.1
20260904002046 75 115 0.0 1.0 0.00 0.00 0.00 85 1015.9
20260904001544 75 115 0.0 1.0 0.00 0.00 0.00 84 1015.8
20260904001044 76 87 0.0 0.0 0.00 0.00 0.00 83 1015.7
20260904000546 76 87 0.0 1.0 0.00 0.00 0.00 82 1015.7
20260904000047 77 124 0.0 1.0 0.00 0.00 0.00 81 1015.7
20260903235548 78 124 0.0 1.0 0.00 0.00 0.00 78 1015.7
20260903235044 79 200 0.0 0.0 0.00 0.00 0.00 76 1015.7
20260903234543 79 200 0.0 0.0 0.00 0.00 0.00 75 1015.6
20260903234044 79 200 0.0 0.0 0.00 0.00 0.00 74 1015.6
20260903233544 80 200 0.0 1.0 0.00 0.00 0.00 73 1015.5
20260903233048 80 200 0.0 1.0 0.00 0.00 0.00 72 1015.3
20260903232542 80 212 0.0 2.0 0.00 0.00 0.00 72 1015.4